TimeCDT,TemperatureF,Dew PointF,Humidity,Sea Level PressureIn,VisibilityMPH,Wind Direction,Wind SpeedMPH,Gust SpeedMPH,PrecipitationIn,Events,Conditions,WindDirDegrees,DateUTC
12:55 AM,10.0,7.0,87,30.41,10.0,NNW,5.8,-,N/A,,Clear,340,2013-03-13 05:55:00
1:55 AM,7.0,3.9,87,30.41,10.0,NNW,5.8,-,N/A,,Clear,330,2013-03-13 06:55:00
2:55 AM,6.1,3.9,91,30.43,10.0,West,3.5,-,N/A,,Clear,280,2013-03-13 07:55:00
3:55 AM,5.0,1.0,84,30.43,10.0,West,3.5,-,N/A,,Clear,280,2013-03-13 08:55:00
4:55 AM,3.9,1.9,91,30.41,10.0,Calm,Calm,-,N/A,,Clear,0,2013-03-13 09:55:00
5:55 AM,3.9,-0.0,84,30.43,10.0,Calm,Calm,-,N/A,,Clear,0,2013-03-13 10:55:00
6:55 AM,6.1,1.9,83,30.44,10.0,SW,3.5,-,N/A,,Clear,230,2013-03-13 11:55:00
7:55 AM,6.1,3.0,87,30.44,10.0,Calm,Calm,-,N/A,,Clear,0,2013-03-13 12:55:00
8:55 AM,8.1,3.9,83,30.43,10.0,East,3.5,-,N/A,,Clear,100,2013-03-13 13:55:00
9:55 AM,12.0,8.1,84,30.42,10.0,East,5.8,-,N/A,,Clear,90,2013-03-13 14:55:00
10:55 AM,15.1,10.0,80,30.42,10.0,SE,5.8,-,N/A,,Overcast,140,2013-03-13 15:55:00
11:55 AM,19.9,14.0,78,30.41,10.0,SE,5.8,-,N/A,,Clear,140,2013-03-13 16:55:00
12:55 PM,23.0,15.1,72,30.40,10.0,SSE,10.4,-,N/A,,Mostly Cloudy,150,2013-03-13 17:55:00
1:55 PM,28.0,19.0,69,30.35,10.0,SSE,10.4,-,0.00,,Overcast,150,2013-03-13 18:55:00
3:55 PM,32.0,21.9,66,30.28,10.0,South,15.0,20.7,N/A,,Clear,170,2013-03-13 20:55:00
4:55 PM,33.1,24.1,70,30.25,10.0,SSE,13.8,-,N/A,,Clear,160,2013-03-13 21:55:00
5:55 PM,35.1,25.0,67,30.22,10.0,SSE,11.5,-,N/A,,Clear,160,2013-03-13 22:55:00
6:55 PM,35.1,26.1,70,30.20,10.0,SSE,10.4,-,N/A,,Clear,150,2013-03-13 23:55:00
7:55 PM,34.0,26.1,73,30.20,10.0,SSE,11.5,-,N/A,,Clear,150,2013-03-14 00:55:00
8:55 PM,34.0,27.0,75,30.18,10.0,SSE,11.5,20.7,N/A,,Clear,160,2013-03-14 01:55:00
9:55 PM,33.1,28.0,82,30.14,10.0,SSE,15.0,23.0,N/A,,Clear,160,2013-03-14 02:55:00
10:55 PM,33.1,28.0,82,30.11,10.0,SSE,18.4,24.2,N/A,,Clear,160,2013-03-14 03:55:00
11:55 PM,33.1,28.0,82,30.08,10.0,South,11.5,21.9,N/A,,Scattered Clouds,170,2013-03-14 04:55:00